This demonstration page uses our WeatherBlox Daily Observations layout. Learn more.

39.29038, -76.61219

Hourly Observations for March 15, 2019

Temp ( °F °C ) Dew Point ( °F °C ) Humidity (%) Winds ( mph kmh ) Pressure ( in mb ) Visibility ( mi km ) Precip ( " mm )
12:54 am 00:54 undefined 56 13.3 47 8.3 72 72 undefined N/A 29.93 1014 N/A 0 0
1:54 am 01:54 undefined 57 13.9 47 8.3 69 69 undefined N/A 29.9 1013 N/A 0 0
2:54 am 02:54 undefined 55 12.8 47 8.3 74 74 undefined N/A 29.89 1012 N/A 0 0
3:54 am 03:54 undefined 57 13.9 48 8.9 72 72 undefined N/A 29.86 1011 N/A 0 0
4:54 am 04:54 undefined 56 13.3 48 8.9 75 75 undefined N/A 29.85 1011 N/A 0 0
5:54 am 05:54 undefined 61 16.1 51 10.6 70 70 undefined N/A 29.85 1011 N/A 0 0
6:54 am 06:54 undefined 64 17.8 53 11.7 68 68 undefined N/A 29.85 1011 N/A 0 0
7:54 am 07:54 undefined 64 17.8 54 12.2 70 70 undefined N/A 29.85 1011 N/A 0 0
8:54 am 08:54 undefined 66 18.9 54 12.2 65 65 undefined N/A 29.86 1011 N/A 0 0
9:54 am 09:54 undefined 68 20 55 12.8 63 63 undefined N/A 29.85 1011 N/A 0 0
10:54 am 10:54 undefined 71 21.7 56 13.3 59 59 undefined N/A 29.83 1010 N/A 0 0
11:54 am 11:54 undefined 73 22.8 57 13.9 57 57 undefined N/A 29.82 1010 N/A 0 0
12:54 pm 12:54 undefined 75 23.9 56 13.3 52 52 undefined N/A 29.79 1009 N/A 0 0
1:54 pm 13:54 undefined 76 24.4 57 13.9 52 52 undefined N/A 29.76 1008 N/A 0 0
2:54 pm 14:54 undefined 77 25 57 13.9 50 50 undefined N/A 29.72 1006 N/A 0 0
3:54 pm 15:54 undefined 77 25 57 13.9 50 50 undefined N/A 29.69 1006 N/A 0 0
4:54 pm 16:54 undefined 77 25 58 14.4 52 52 undefined N/A 29.67 1005 N/A 0 0
5:54 pm 17:54 undefined 75 23.9 58 14.4 55 55 undefined N/A 29.67 1005 N/A 0 0
6:54 pm 18:54 undefined 73 22.8 58 14.4 59 59 undefined N/A 29.68 1005 N/A 0 0
7:54 pm 19:54 undefined 72 22.2 59 15 64 64 undefined N/A 29.69 1006 N/A 0 0
8:54 pm 20:54 undefined 63 17.2 51 10.6 65 65 undefined N/A 29.75 1007 N/A 0.09 2.286
9:54 pm 21:54 undefined 65 18.3 39 3.9 39 39 undefined N/A 29.77 1008 N/A 0.21 5.334
10:54 pm 22:54 undefined 63 17.2 36 2.2 37 37 undefined N/A 29.8 1009 N/A 0 0
11:54 pm 23:54 undefined 59 15 34 1.1 39 39 undefined N/A 29.85 1011 N/A 0 0

Powered by AerisWeather